Погода в Узбекистане

Узбекистан     39°23′38″N   63°56′10″E
темп.,
°C
ветер,
м/с
пор.,
м/с
влажн.,
%
обл.,
%
осадки,
мм/ч
давл.,
гПа
погр.,
м
1 марта, пн
пн123:00+9в452671 0.0 101849
02:00+8вюв55290 0.0 101759
05:00+7юв55400 0.0 101772
08:00+6ююв47550 0.0 1017100
11:00+13ю69330 0.0 1018539
14:00+17юз56170 0.0 1017772
17:00+18зюз34150 0.0 10161102
20:00+14сз442833 0.0 101950
2 марта, вт
вт223:00+12с453166 0.0 102050
02:00+10св333555 0.0 102023
05:00+10ссв453277 0.0 102058
08:00+9с3434100 0.0 102156
11:00+13с452781 0.0 1022426
14:00+16ссз342111 0.0 10211055
17:00+16с55215 0.0 10201265
20:00+12ссз69330 0.0 1023258
3 марта, ср
ср323:00+9с6104722 0.0 1023356
02:00+8с575174 0.0 1023230
05:00+6с575785 0.0 1023204
08:00+6с465996 0.0 1023159
11:00+10с344484 0.0 1023366
14:00+13ссз223652 0.0 1021873
17:00+14ссв323326 0.0 10191123
20:00+12ссв33380 0.0 101983
4 марта, чт
чт423:00+11св34410 0.0 101960
02:00+10всв44450 0.0 101750
05:00+9в344617 0.0 101637
08:00+10юв2343100 0.0 101630
11:00+16ююв454082 0.0 1017359
14:00+20юз68290 0.0 10171781
17:00+19зсз99300 0.0 10171523
20:00+13ссз8114222 0.0 1021911
5 марта, пт
пт523:00+10зсз595325 0.0 1024832
02:00+8с3471100 1.3 1026698
05:00+7всв237467 1.3 1027117
08:00+7в46710 0.0 1028304
11:00+10всв56430 0.0 1027874
14:00+12всв55231 0.0 10231249
17:00+13св662034 0.0 10201045
20:00+13св5932100 0.0 1017462